Regional Weather Roundup
Issued by NWS Raleigh/Durham, NC

Current Version |  Previous Version |  Text Only |  Print | Product List |  Glossary On
Versions: 1 2 3 4 5 6 7 8 9 10 11 12 13 14 15 16 17 18 19 20 21 22 23 24 25 26 27 28
742
ASUS42 KRAH 280410
RWRRAH
NORTH CAROLINA WEATHER ROUNDUP
NATIONAL WEATHER SERVICE RALEIGH NC
1200 AM EDT TUE MAY 28 2024

NOTE: "FAIR" INDICATES FEW OR NO CLOUDS BELOW 12,000 FEET WITH NO
SIGNIFICANT WEATHER AND/OR OBSTRUCTIONS TO VISIBILITY.

NCZ001-053-055-056-065-067-280500-
WESTERN NORTH CAROLINA

CITY           SKY/WX    TMP DP  RH WIND       PRES   REMARKS
ASHEVILLE      CLEAR     63  60  90 CALM      30.00S
JEFFERSON      PTCLDY    65  57  76 W5        30.02R
MORGANTON      CLOUDY    71  66  84 CALM      29.95R
HICKORY        PTCLDY    70  66  87 W3        29.92S
WILKESBORO     CLOUDY    68  61  77 NW5       29.98R
RUTHERFORDTON  PTCLDY    68  68 100 NW3       29.95S
MOUNT AIRY     PTCLDY    65  63  91 CALM      29.94R
BOONE          MOCLDY    64  58  80 CALM      29.86S
$$

NCZ021-022-025-041-071-084-088-280500-
CENTRAL NORTH CAROLINA

CITY           SKY/WX    TMP DP  RH WIND       PRES   REMARKS
CHARLOTTE      CLOUDY    74  66  76 W3        29.92R
GREENSBORO     PTCLDY    70  63  78 W5        29.90R
WINSTON-SALEM  CLEAR     72  63  73 SW3       29.92R
RALEIGH-DURHAM PTCLDY    73  66  78 W5        29.87S
FORT BRAGG     MOCLDY    78  66  66 SW3       29.87S
FAYETTEVILLE   MOCLDY    77  66  68 SW10      29.89R
BURLINGTON     PTCLDY    71  65  81 S3        29.88R
ROXBORO        PTCLDY    68  63  83 SW3       29.89S
HENDERSON      NOT AVBL
LOUISBURG      CLEAR     72  64  78 SW6       29.88S
LAURINBURG     PTCLDY    73  68  84 SW5       29.90S
$$

NCZ011-015-027-028-043-044-047-080-103-280500-
NORTHEASTERN NORTH CAROLINA

CITY           SKY/WX    TMP DP  RH WIND       PRES   REMARKS
ROCKY MT-WILSO PTCLDY    72  70  93 S6        29.86R FOG
GREENVILLE     PTCLDY    77  73  88 SW7       29.85S
WASHINGTON     PTCLDY    76  70  81 SW10      29.87R
ELIZABETH CITY PTCLDY    73  70  90 SW8       29.82S
MANTEO         PTCLDY    76  72  86 W12       29.85R
CAPE HATTERAS  PTCLDY    74  74 100 SW13G25   29.87R FOG
$$

NCZ078-087-090-091-093-098-101-280500-
SOUTHEASTERN NORTH CAROLINA

CITY           SKY/WX    TMP DP  RH WIND       PRES   REMARKS
LUMBERTON      MOCLDY    76  67  73 CALM      29.89S
GOLDSBORO      CLEAR     76  67  73 CALM      29.84S
KINSTON        MOCLDY    74  72  92 SW5       29.88S
KENANSVILLE    PTCLDY    73  72  94 S3        29.89S
NEW BERN       PTCLDY    76  71  85 SW7       29.88S
CHERRY POINT   MOCLDY    76  72  87 SW10      29.88S
BEAUFORT       PTCLDY    78  73  84 W12       29.89S
JACKSONVILLE   PTCLDY    75  74  96 SW6       29.89
WILMINGTON     PTCLDY    79  72  79 SW8       29.90S
$$